CAPE
3055 2273 2427 2058 2806 2583 2557 2552 2253 2178 2115 1909 1841 1666 1682 1559 1506 1352 1926 576 316 466 978 802 761 514 652 970 732 574 444 357 243 127 55 17 3 11 16 13 11 20 24
2635 2251 2356 2101 1757 2362 2725 2359 2215 2086 2095 2088 2004 1775 1872 1518 1445 1258 1066 992 298 271 492 441 444 95 331 791 539 460 340 269 185 27 1 0 0 1 6 7 4 28 24
3194 2931 2410 2247 1896 1971 3225 2873 2742 2229 2123 1837 1843 1666 1864 1535 1365 1222 1051 953 317 154 122 218 312 182 194 346 596 497 374 243 165 19 0 0 0 0 5 9 25 24 21
2860 3397 2546 2593 2351 2249 2290 2775 2587 2335 2053 1929 1931 1603 1560 1515 1383 1142 1035 901 538 255 47 18 5 2 36 132 308 333 280 214 118 21 0 1 2 6 12 20 20 5 7
2710 3141 2773 2318 2475 2338 2421 2407 2565 2416 2087 1999 1827 1873 1569 1284 1214 1227 924 848 472 284 279 60 9 0 38 98 205 325 312 160 67 3 2 0 11 14 16 27 6 6 4
2831 3147 2748 2566 2368 2317 2419 2416 2476 2289 2095 1711 1450 1244 1477 1318 1321 1317 903 610 487 316 230 66 10 2 20 49 90 318 343 247 56 8 10 8 20 28 14 24 14 11 8
2655 2971 2708 2397 2398 1892 2244 1970 2226 1897 1841 1888 1756 1412 1070 983 1018 1042 799 773 476 253 112 113 95 61 43 53 80 305 402 269 105 23 22 2 18 30 23 26 24 9 7
2980 2750 2794 2367 2491 1872 1756 1729 1764 1886 1685 1849 1193 891 725 728 744 794 776 802 675 581 116 109 55 94 127 78 41 57 247 326 134 59 34 2 21 38 32 16 11 7 17
3122 2777 2192 2535 2623 1850 1542 1697 1930 1738 1521 1426 1220 613 297 323 275 515 853 768 606 541 341 402 109 90 121 90 79 51 90 105 77 75 50 15 22 35 37 15 11 4 12
2690 2722 2693 2105 2732 2116 1922 1643 1729 1667 1472 765 1204 1070 960 495 428 351 479 696 754 530 714 503 336 128 96 101 47 122 65 58 30 28 55 29 35 40 41 40 17 3 10
2441 1867 2032 2303 2555 2340 2261 1955 1494 1725 1567 1250 998 858 1056 612 459 362 388 526 296 554 414 615 652 400 251 122 124 56 78 37 35 16 33 35 26 43 47 45 36 14 10
2362 1935 1770 1724 2286 2374 1913 2196 2133 1684 1800 1493 1190 857 547 564 263 398 304 203 270 355 288 462 488 383 262 272 126 26 23 35 39 12 11 27 24 39 43 39 39 33 37
2208 2169 1539 1797 1856 1998 2014 2275 2088 1193 1849 1735 1667 1184 896 763 458 374 578 388 224 536 160 63 158 311 119 178 150 37 20 14 9 6 5 20 20 18 26 29 30 34 37
2093 2354 1577 1698 1907 2010 2314 2140 1995 1408 1451 1616 1619 1510 1160 1089 1079 725 415 333 217 249 189 95 18 11 116 61 23 4 8 5 3 1 0 8 32 16 12 16 20 17 15
2030 2495 1846 2008 1767 1985 2104 1964 1990 2149 1542 636 1540 1541 1239 905 872 484 342 132 118 6 121 41 153 24 14 14 9 1 13 5 13 4 1 0 18 15 16 18 12 13 17
2029 2290 2332 1657 1795 1561 1687 1819 1824 1835 1877 1405 1249 1024 939 744 545 479 401 418 264 113 86 44 87 115 18 5 0 1 3 32 12 10 2 0 1 18 17 12 13 10 15
1865 1764 1851 1609 1461 1625 1431 2013 1808 1612 1258 893 929 882 828 631 553 345 314 275 408 265 147 96 84 144 93 22 1 4 1 24 7 5 7 0 0 2 3 6 10 17 27
1597 1746 1705 1429 1281 1525 1531 1649 1619 1468 1015 823 860 772 762 552 516 465 496 383 360 253 191 83 146 159 96 0 25 28 2 21 20 4 5 1 2 12 8 4 0 3 13
1033 1096 1338 1411 1434 1250 1154 1681 1395 1139 680 716 766 714 610 345 302 260 283 199 344 286 116 154 50 24 76 17 12 17 4 8 4 4 1 0 5 47 50 42 15 5 0
526 802 1065 1113 1193 1189 936 1288 903 908 556 470 268 237 122 95 113 63 59 51 77 101 39 10 6 16 6 1 13 0 2 18 3 1 2 2 20 71 83 76 39 34 35
482 556 697 697 707 768 860 923 574 453 210 145 124 79 41 31 25 1 0 0 0 0 1 76 0 0 1 1 1 6 4 4 1 3 1 0 5 65 98 94 101 107 86
107 429 262 434 580 602 689 533 246 147 73 55 59 28 51 20 9 2 0 0 0 0 0 0 5 0 0 4 0 0 0 0 0 0 0 0 0 54 9 87 98 108 103
50 72 168 212 254 312 274 216 91 59 32 17 71 34 10 34 5 5 0 0 0 0 0 0 0 0 1 0 2 0 0 15 0 0 0 0 7 3 1 0 43 48 65
22 27 48 28 3 170 104 13 29 33 37 11 10 10 1 12 4 0 0 0 0 0 0 0 0 0 0 3 0 0 0 15 19 3 3 0 0 0 1 11 4 11 18
0 0 0 9 0 0 27 32 23 28 33 5 0 2 17 10 0 0 0 0 0 0 0 0 1 0 0 4 8 2 0 0 2 0 0 0 0 0 0 0 0 1 1
0 0 0 0 0 0 0 0 0 0 0 0 0 0 0 1 3 1 0 0 0 0 1 7 0 1 0 0 1 0 0 0 0 0 0 0 0 0 0 0 0 1 2
CIN
-0 -0 -0 -0 -0 -2 -0 -0 -1 -1 -4 -1 -3 -0 -0 -0 -0 -0 -0 -42 -61 -40 -21 -6 -0 -0 -0 -0 -0 -0 -2 -2 -5 -7 -27 -26 -4 -4 -4 -6 -15 -7 -4
-0 -0 -0 -0 -0 -1 -4 -0 -0 -0 -7 -2 -0 -0 -0 -0 -0 -1 -0 -6 -66 -88 -49 -36 -20 -43 -2 -3 -3 -0 -0 -4 -1 -5 -3 -0 -1 -4 -14 -15 -8 -6 -1
-0 -7 -14 -0 -0 -0 -1 -8 -1 -0 -0 -0 -1 -0 -1 -0 -0 -0 -0 -0 -49 -20 -47 -40 -24 -17 -8 -11 -1 -3 -0 -0 -0 -5 -0 -0 -0 -0 -11 -12 -8 -2 -1
-6 -0 -30 -14 -3 -0 -0 -0 -0 -0 -1 -0 -0 -0 -2 -0 -0 -0 -0 -0 -4 -29 -68 -54 -68 -33 -17 -0 -0 -7 -8 -0 -1 -0 -0 -1 -2 -7 -6 -9 -3 -0 -0
-10 -0 -5 -42 -31 -30 -0 -0 -1 -0 -0 -0 -0 -2 -1 -1 -0 -0 -0 -0 -14 -22 -23 -41 -41 -0 -5 -0 -0 -0 -0 -1 -2 -1 -3 -0 -2 -4 -2 -4 -0 -0 -0
-7 -0 -0 -20 -26 -39 -19 -0 -1 -3 -0 -0 -0 -5 -0 -0 -0 -0 -0 -0 -2 -24 -19 -12 -11 -0 -9 -16 -0 -0 -0 -0 -0 -0 -4 -3 -1 -3 -0 -2 -1 -0 -0
-14 -8 -8 -37 -43 -61 -45 -56 -1 -1 -1 -0 -0 -0 -0 -0 -0 -0 -0 -1 -1 -18 -36 -6 -5 -4 -0 -0 -1 -0 -0 -0 -4 -0 -0 -4 -2 -4 -3 -2 -1 -0 -0
-1 -26 -26 -67 -37 -92 -66 -71 -55 -18 -8 -1 -16 -13 -14 -15 -18 -3 -0 -0 -0 -1 -33 -24 -28 -0 -2 -14 -24 -0 -0 -1 -0 -0 -0 -2 -2 -3 -4 -1 -0 -0 -0
-0 -13 -59 -46 -21 -76 -108 -73 -42 -40 -31 -23 -32 -40 -66 -75 -104 -40 -0 -0 -0 -0 -1 -1 -34 -29 -0 -2 -2 -6 -1 -4 -2 -0 -0 -6 -4 -4 -3 -0 -0 -0 -0
-0 -11 -20 -66 -15 -62 -68 -89 -43 -35 -17 -88 -18 -35 -21 -39 -52 -39 -30 -0 -0 -0 -5 -0 -0 -10 -15 -1 -17 -3 -5 -11 -3 -3 -0 -5 -6 -5 -3 -1 -0 -0 -0
-0 -42 -26 -22 -20 -43 -48 -69 -72 -36 -28 -23 -53 -70 -23 -55 -44 -45 -12 -0 -1 -0 -3 -0 -0 -0 -0 -2 -0 -3 -0 -11 -2 -4 -9 -10 -7 -8 -5 -1 -1 -0 -0
-0 -30 -38 -31 -10 -21 -75 -45 -46 -52 -27 -12 -22 -69 -92 -78 -106 -34 -35 -16 -2 -4 -5 -0 -0 -0 -4 -0 -1 -10 -9 -6 -2 -2 -18 -15 -17 -10 -8 -4 -1 -1 -0
-1 -10 -58 -15 -16 -16 -52 -42 -36 -55 -0 -0 -1 -19 -34 -45 -62 -38 -2 -2 -2 -2 -4 -6 -1 -4 -15 -3 -1 -0 -0 -0 -5 -4 -14 -21 -18 -23 -18 -12 -7 -2 -2
-0 -0 -44 -15 -1 -8 -12 -28 -37 -18 -13 -1 -3 -0 -1 -10 -4 -7 -5 -0 -2 -0 -0 -5 -46 -23 -27 -33 -34 -1 -0 -0 -0 -1 -0 -24 -11 -16 -27 -24 -23 -18 -12
-0 -0 -13 -0 -1 -2 -2 -14 -16 -6 -1 -91 -1 -0 -0 -10 -17 -41 -20 -31 -12 -2 -22 -51 -0 -41 -32 -13 -0 -14 -0 -2 -0 -0 -2 -1 -11 -12 -18 -23 -25 -28 -29
-0 -0 -0 -15 -2 -11 -2 -1 -2 -1 -0 -7 -0 -0 -1 -15 -45 -45 -21 -2 -3 -10 -22 -55 -11 -1 -40 -28 -2 -14 -7 -0 -0 -0 -0 -0 -10 -8 -4 -15 -15 -21 -21
-0 -1 -0 -13 -18 -4 -14 -0 -0 -0 -13 -20 -4 -2 -18 -23 -36 -51 -26 -7 -0 -1 -0 -3 -1 -3 -0 -15 -2 -0 -5 -0 -0 -0 -0 -0 -0 -8 -12 -12 -9 -11 -12
-2 -6 -0 -1 -9 -4 -10 -3 -0 -1 -23 -7 -0 -0 -1 -7 -20 -16 -0 -2 -2 -0 -0 -2 -0 -1 -0 -0 -15 -0 -2 -1 -0 -3 -0 -0 -0 -8 -2 -2 -0 -4 -5
-1 -11 -3 -1 -0 -5 -27 -2 -0 -24 -57 -43 -35 -0 -0 -12 -20 -8 -2 -9 -0 -0 -9 -2 -0 -9 -1 -0 -0 -6 -6 -2 -5 -5 -0 -0 -0 -8 -2 -19 -1 -5 -2
-0 -1 -0 -0 -0 -0 -21 -0 -4 -0 -78 -76 -41 -2 -5 -43 -41 -38 -51 -55 -35 -41 -22 -0 -11 -2 -0 -0 -4 -0 -1 -4 -4 -0 -0 -0 -2 -10 -4 -1 -6 -26 -35
-0 -0 -0 -2 -11 -6 -4 -0 -4 -15 -67 -65 -23 -17 -24 -16 -77 -31 -0 -0 -0 -0 -0 -31 -0 -0 -4 -1 -0 -1 -0 -0 -0 -0 -0 -0 -0 -1 -0 -0 -0 -0 -0
-5 -1 -12 -12 -1 -3 -0 -0 -27 -29 -0 -17 -28 -12 -16 -5 -102 -80 -0 -0 -0 -0 -0 -0 -0 -0 -0 -6 -0 -0 -0 -0 -0 -0 -0 -0 -0 -0 -0 -0 -0 -0 -0
-0 -1 -0 -0 -0 -0 -1 -0 -7 -12 -4 -49 -0 -2 -59 -5 -141 -0 -0 -0 -0 -0 -0 -0 -0 -0 -0 -0 -0 -0 -0 -0 -0 -0 -0 -0 -0 -0 -0 -0 -0 -0 -0
-0 -1 -5 -8 -1 -0 -0 -6 -3 -0 -2 -2 -1 -6 -1 -5 -44 -0 -0 -0 -0 -0 -0 -0 -0 -0 -0 -0 -0 -0 -0 -0 -0 -0 -0 -0 -0 -0 -0 -0 -0 -0 -0
-0 -0 -0 -0 -6 -0 -0 -3 -0 -0 -0 -8 -0 -2 -7 -32 -0 -0 -0 -0 -0 -0 -0 -0 -0 -0 -0 -0 -0 -0 -0 -0 -0 -0 -0 -0 -0 -0 -0 -0 -0 -0 -0
-0 -0 -0 -0 -0 -0 -0 -0 -0 -0 -0 -0 -0 -0 -0 -0 -13 -8 -0 -0 -0 -0 -0 -0 -0 -0 -0 -0 -0 -0 -0 -0 -0 -0 -0 -0 -0 -0 -0 -0 -0 -0 -0
Wind_Speed
34 34 33 30 31 28 25 24 21 21 19 20 18 18 21 21 21 25 24 25 27 25 22 22 25 14 20 28 29 29 28 23 23 20 nan nan nan nan nan nan nan nan nan
36 34 31 31 31 34 26 26 24 23 24 20 19 19 20 21 21 24 23 28 32 36 35 34 32 nan 14 37 25 31 29 25 23 nan nan nan nan nan nan nan nan nan nan
36 37 33 33 34 33 36 28 26 24 23 22 22 21 21 21 24 22 25 26 36 37 39 37 30 25 11 8 25 33 30 25 23 nan nan nan nan nan nan nan nan nan nan
31 39 42 38 39 35 37 33 30 25 24 22 23 22 24 21 23 23 25 29 33 36 nan nan nan nan nan 19 29 39 27 25 23 nan nan nan nan nan nan nan nan nan nan
33 36 42 41 45 42 34 39 31 30 24 24 22 24 24 22 24 25 23 26 34 33 29 nan nan nan nan nan 24 22 26 17 nan nan nan nan nan nan nan nan nan nan nan
36 38 42 41 47 45 41 39 36 34 23 23 21 24 26 21 25 24 21 26 30 25 27 nan nan nan nan nan nan 15 21 14 nan nan nan nan nan nan nan nan nan nan nan
38 38 42 43 47 45 41 44 41 35 27 26 28 23 24 21 23 23 20 23 22 26 26 25 nan nan nan nan nan 7 11 14 15 nan nan nan nan nan nan nan nan nan nan
40 37 40 41 44 50 42 47 47 38 32 29 30 28 25 23 21 23 21 21 18 23 25 19 nan nan 22 nan nan nan 14 15 13 nan nan nan nan nan nan nan nan nan nan
39 36 35 37 45 46 46 48 45 44 35 30 30 30 28 21 28 25 21 19 19 21 19 27 25 nan 23 nan nan nan nan 16 nan nan nan nan nan nan nan nan nan nan nan
40 39 35 36 39 45 47 48 43 42 39 31 30 24 21 22 25 26 27 21 19 22 21 21 21 23 nan 22 nan 19 nan nan nan nan nan nan nan nan nan nan nan nan nan
41 38 35 34 38 45 45 48 44 42 40 36 31 30 25 22 22 23 25 31 25 23 27 25 22 20 21 21 29 nan nan nan nan nan nan nan nan nan nan nan nan nan nan
50 37 38 34 35 41 44 45 42 39 43 38 32 33 30 27 27 25 24 23 24 30 28 29 24 22 23 22 20 nan nan nan nan nan nan nan nan nan nan nan nan nan nan
54 43 38 35 36 37 40 42 43 44 46 35 34 35 33 26 26 25 24 24 26 32 33 nan 25 24 27 29 29 nan nan nan nan nan nan nan nan nan nan nan nan nan nan
49 44 42 37 36 34 38 41 44 46 40 31 38 33 35 28 27 24 27 29 28 27 27 nan nan nan 27 nan nan nan nan nan nan nan nan nan nan nan nan nan nan nan nan
50 45 44 40 36 37 39 41 43 41 37 33 42 44 37 32 29 26 26 30 32 nan 28 nan 28 nan nan nan nan nan nan nan nan nan nan nan nan nan nan nan nan nan nan
44 43 41 42 39 39 40 39 43 45 46 47 45 40 34 34 29 26 24 28 29 27 nan nan nan 29 nan nan nan nan nan nan nan nan nan nan nan nan nan nan nan nan nan
38 39 42 42 37 38 42 39 46 47 48 47 46 43 37 32 32 26 28 27 28 27 28 nan nan 32 nan nan nan nan nan nan nan nan nan nan nan nan nan nan nan nan nan
31 30 40 42 39 37 39 39 40 50 48 44 43 41 32 38 24 25 28 26 28 27 29 nan 29 32 nan nan nan nan nan nan nan nan nan nan nan nan nan nan nan nan nan
33 34 41 43 39 38 36 36 38 45 47 48 44 42 33 28 25 27 27 27 27 28 28 27 nan nan nan nan nan nan nan nan nan nan nan nan nan nan nan nan nan nan nan
43 43 47 42 38 38 36 36 38 38 48 47 41 35 39 nan 32 nan nan nan nan 27 nan nan nan nan nan nan nan nan nan nan nan nan nan nan nan nan nan nan nan nan nan
49 58 55 56 54 50 49 38 41 47 52 56 53 nan nan nan nan nan nan nan nan nan nan nan nan nan nan nan nan nan nan nan nan nan nan nan nan nan nan nan 61 62 nan
53 56 60 66 61 52 49 37 45 51 nan nan nan nan nan nan nan nan nan nan nan nan nan nan nan nan nan nan nan nan nan nan nan nan nan nan nan nan nan nan nan 61 59
nan nan 46 52 59 54 59 60 nan nan nan nan nan nan nan nan nan nan nan nan nan nan nan nan nan nan nan nan nan nan nan nan nan nan nan nan nan nan nan nan nan nan nan
nan nan nan nan nan 49 66 nan nan nan nan nan nan nan nan nan nan nan nan nan nan nan nan nan nan nan nan nan nan nan nan nan nan nan nan nan nan nan nan nan nan nan nan
nan nan nan nan nan nan nan nan nan nan nan nan nan nan nan nan nan nan nan nan nan nan nan nan nan nan nan nan nan nan nan nan nan nan nan nan nan nan nan nan nan nan nan
nan nan nan nan nan nan nan nan nan nan nan nan nan nan nan nan nan nan nan nan nan nan nan nan nan nan nan nan nan nan nan nan nan nan nan nan nan nan nan nan nan nan nan
Wind_Direction
283 286 279 280 289 283 292 299 301 297 298 296 285 294 301 303 309 292 283 281 287 282 278 283 282 281 248 260 261 260 260 251 258 260 nan nan nan nan nan nan nan nan nan
274 277 279 280 280 287 281 295 299 306 291 288 288 294 296 302 301 292 281 274 277 276 275 277 277 nan 224 271 256 256 252 250 252 nan nan nan nan nan nan nan nan nan nan
279 284 283 281 284 281 289 285 291 305 296 288 282 289 289 302 297 291 282 268 275 270 268 268 286 291 248 235 267 251 250 251 244 nan nan nan nan nan nan nan nan nan nan
280 284 283 283 283 279 285 287 291 293 292 282 282 283 290 299 292 287 278 274 275 274 nan nan nan nan nan 123 236 258 247 250 239 nan nan nan nan nan nan nan nan nan nan
281 276 278 280 282 280 280 282 278 288 294 284 282 282 289 291 288 279 282 282 286 278 255 nan nan nan nan nan 247 233 253 241 nan nan nan nan nan nan nan nan nan nan nan
280 274 273 279 279 281 281 279 281 278 289 284 275 276 284 288 273 279 287 294 290 271 258 nan nan nan nan nan nan 230 256 244 nan nan nan nan nan nan nan nan nan nan nan
275 272 268 271 277 279 284 277 273 278 276 276 268 270 276 282 284 281 285 289 287 281 269 290 nan nan nan nan nan 240 270 260 254 nan nan nan nan nan nan nan nan nan nan
277 274 272 270 276 274 282 280 280 269 272 273 268 264 274 277 279 282 283 291 302 296 278 296 nan nan 243 nan nan nan 246 250 279 nan nan nan nan nan nan nan nan nan nan
280 277 274 269 268 270 275 276 278 279 270 265 274 266 270 270 270 281 288 290 298 305 277 294 295 nan 237 nan nan nan nan 247 nan nan nan nan nan nan nan nan nan nan nan
272 273 267 267 264 263 266 270 270 271 271 263 263 269 268 258 269 273 278 283 282 292 291 280 291 290 nan 235 nan 229 nan nan nan nan nan nan nan nan nan nan nan nan nan
272 269 265 263 263 260 264 268 269 270 268 265 255 259 270 270 262 265 266 275 276 273 280 287 285 283 271 258 238 nan nan nan nan nan nan nan nan nan nan nan nan nan nan
262 263 262 260 257 259 260 263 268 272 271 268 261 261 266 268 265 268 273 277 275 279 274 272 275 272 280 278 266 nan nan nan nan nan nan nan nan nan nan nan nan nan nan
261 264 262 255 255 257 263 264 267 262 254 257 266 256 262 264 266 273 275 276 278 278 273 nan 269 271 270 265 268 nan nan nan nan nan nan nan nan nan nan nan nan nan nan
258 260 261 254 251 254 257 258 259 265 274 268 266 257 255 257 259 264 268 273 275 272 274 nan nan nan 267 nan nan nan nan nan nan nan nan nan nan nan nan nan nan nan nan
249 251 255 254 247 247 253 257 254 256 255 264 255 247 251 247 250 262 266 268 274 nan 278 nan 279 nan nan nan nan nan nan nan nan nan nan nan nan nan nan nan nan nan nan
247 250 250 255 248 247 249 255 254 254 252 249 247 260 246 250 253 260 268 272 273 281 nan nan nan 277 nan nan nan nan nan nan nan nan nan nan nan nan nan nan nan nan nan
240 243 244 249 248 247 253 253 257 261 259 256 253 253 247 255 251 258 268 271 274 279 277 nan nan 264 nan nan nan nan nan nan nan nan nan nan nan nan nan nan nan nan nan
230 237 240 240 240 242 249 252 262 263 266 264 263 270 236 237 249 258 262 269 275 285 280 nan 265 266 nan nan nan nan nan nan nan nan nan nan nan nan nan nan nan nan nan
213 220 229 237 237 243 248 252 257 261 263 263 254 256 228 239 250 255 261 269 270 279 280 278 nan nan nan nan nan nan nan nan nan nan nan nan nan nan nan nan nan nan nan
216 226 228 235 243 242 246 249 255 255 256 258 263 257 238 nan 248 nan nan nan nan 269 nan nan nan nan nan nan nan nan nan nan nan nan nan nan nan nan nan nan nan nan nan
221 218 225 226 232 237 235 242 252 253 252 253 254 nan nan nan nan nan nan nan nan nan nan nan nan nan nan nan nan nan nan nan nan nan nan nan nan nan nan nan 266 268 nan
232 233 223 224 224 227 224 230 248 251 nan nan nan nan nan nan nan nan nan nan nan nan nan nan nan nan nan nan nan nan nan nan nan nan nan nan nan nan nan nan nan 263 264
nan nan 231 234 230 221 225 248 nan nan nan nan nan nan nan nan nan nan nan nan nan nan nan nan nan nan nan nan nan nan nan nan nan nan nan nan nan nan nan nan nan nan nan
nan nan nan nan nan 227 230 nan nan nan nan nan nan nan nan nan nan nan nan nan nan nan nan nan nan nan nan nan nan nan nan nan nan nan nan nan nan nan nan nan nan nan nan
nan nan nan nan nan nan nan nan nan nan nan nan nan nan nan nan nan nan nan nan nan nan nan nan nan nan nan nan nan nan nan nan nan nan nan nan nan nan nan nan nan nan nan
nan nan nan nan nan nan nan nan nan nan nan nan nan nan nan nan nan nan nan nan nan nan nan nan nan nan nan nan nan nan nan nan nan nan nan nan nan nan nan nan nan nan nan